Weather in Miroshkino

Russia / Orenburg Oblast     51°59′24″N   52°03′07″E
temp.,
°C
wind,
m/s
gust,
m/s
humid.,
%
clouds,
%
prec.,
mm/h
press.,
hPa
HPBL,
m
28 february, sun
sun2823:000sw5998100 0.8 1000465
02:000sw5898100 0.8 999384
05:000wsw4799100 2.1 1000364
08:00−12nnw6109394 0.4 1001303
11:00−13nw6109394 0.6 1003380
14:00−13nw6992100 0.1 1006397
17:00−13nw61092100 0.1 1008454
20:00−14nw499497 0.1 1011368
1 march, mon
mon123:00−14nw489598 0.3 1013276
02:00−15nw489699 0.1 1014216
05:00−17nw359695 0.3 1016110
08:00−16nw479699 0.2 1018243
11:00−16nnw469493 0.3 1020248
14:00−15nw459258 0.0 1021261
17:00−16nw469250 0.0 1022273
20:00−20nw349713 0.0 102335
2 march, tue
tue223:00−21w23999 0.0 102420
02:00−21wsw3410047 0.0 102330
05:00−21sw3410053 0.0 102253
08:00−18ssw51098100 0.0 1019217
11:00−15ssw71197100 0.1 1017295
14:00−10ssw81394100 0.3 1013511
17:00−5sw91495100 1.3 1010759
20:00−3sw81496100 1.2 1007674
3 march, wed
wed323:00−3sw71396100 2.2 1006578
02:00−2sw61197100 1.1 1004443
05:00−2sw3698100 2.3 1004209
08:00−3wnw2298100 0.2 100341
11:00−3nw2494100 0.2 1005151
14:00−3nw349398 0.0 1005265
17:00−4nw349586 0.0 1005155
20:00−4nnw479473 0.0 1006385
4 march, thu
thu423:00−5nnw499385 0.1 1009332
02:00−9nw479382 0.0 1009116
05:00−12nw459253 0.0 101175
08:00−13wnw349616 0.0 101254
11:00−11w499517 0.0 1013224
14:00−7sw699240 0.0 1013412
17:00−6sw7138835 0.0 1012505
20:00−6sw91692100 0.1 1010739